Find Starlink 5193

NORAD ID: 54095 Int'l Des: 2022-136 Owner: SPXS Country: US Constellation: starlink operational
LEOCIRCULAR

当前视图

正在加载3D地球...

About Starlink 5193

Starlink 5193 (NORAD 54095) is a starlink constellation satellite (v1.5) launched Oct 20, 2022 by SPXS of US. It operates in LEO, CIRCULAR orbit with a mass of 305.00 kg.

关于 Starlink 5193

正在加载描述...

即将过境

Passes for default location (London). Set your location on the main map for personalized predictions.

高度历史

Loading altitude history...

两行轨道根数

1 54095U 22136AW 26195.17476288 -.00003083 00000-0 -17567-3 0 9998
2 54095 53.1606 125.7213 0001243 91.9968 268.1166 15.08842008206081
Epoch: Jul 14, 2026 • Age: 12 hours

当前状态

高度 558.5 km
远地点 / 近地点 N/A
速度 7.58 km/s
星下点 -51.78°S, 164.97°W
发射日期 Oct 20, 2022
运行时间 3.7 years
类型 internet

技术详情

分类 Payload
质量 305.00 kg
干质量 290.00 kg
总质量 305.00 kg
长度 0.20 m
直径 2.80 m
跨度 9.00 m
形状 Box + pan
制造商 SPXS
平台类型 Starlink
阶段状态 In Orbit
所有者/国家 SPXS/US

Most Searched